Theta_e
322 323 325 325 327 327 329 330 330 335 329 327 332 333 327 326 324 321 322 318 319 321 319 321 321 318 322 324 324 331 335 334 337 336 338 337 324 326 329 326 326 324 326 329 331 334 335 337 338 339 340 339 339 340 339 338 338 338 337 337 337 339 339 339 339 339 339 339 339 339 339 339 339 339 338 338 337 337 338 337 337 337 338 339 339 339 339 339 339 338 338 337 336 335 333 332 332
324 326 327 326 327 324 331 334 334 337 330 326 328 333 331 323 321 325 329 324 322 317 316 322 323 322 325 325 321 326 329 327 331 333 330 325 325 328 328 329 327 325 326 329 332 333 335 337 337 339 339 339 339 340 339 339 339 338 338 337 338 339 339 339 339 339 339 339 339 339 339 339 338 338 337 336 335 335 336 336 336 336 337 338 338 338 338 337 337 337 336 336 334 333 332 331 330
325 327 328 327 326 326 337 334 331 331 322 320 324 330 327 322 326 331 330 325 319 313 315 320 321 323 323 323 320 323 328 329 329 332 328 322 329 331 327 330 327 326 326 329 333 333 335 336 337 338 338 338 338 338 338 338 339 338 338 338 338 339 338 339 339 339 339 339 339 339 338 338 337 337 335 335 334 334 334 334 335 335 336 337 337 337 336 336 336 336 336 335 334 332 331 330 329
325 327 325 327 327 334 347 336 338 332 319 326 326 331 334 330 333 331 327 321 317 315 317 317 319 319 318 324 322 320 326 328 325 331 334 323 327 330 327 329 328 328 327 330 332 332 335 335 336 337 337 338 337 338 337 338 338 337 338 338 338 338 338 338 339 339 338 338 337 337 337 336 336 335 334 333 333 333 333 333 333 333 334 334 334 335 335 335 335 334 334 333 331 330 329 328 328
325 326 321 326 329 333 340 330 336 329 318 332 329 334 344 339 333 328 326 322 318 319 318 317 320 316 315 322 321 323 327 324 319 319 324 322 324 328 328 329 329 329 328 330 331 331 333 334 335 336 336 336 336 336 336 337 337 337 337 337 337 337 338 338 337 338 337 337 336 336 335 335 334 333 333 332 331 331 331 332 332 332 332 331 331 332 333 332 331 331 330 328 326 326 325 324 323
324 324 320 322 322 324 331 324 331 332 325 332 331 336 339 333 329 324 325 323 320 320 317 317 318 315 316 320 318 321 323 321 320 318 318 319 323 327 329 329 330 330 328 329 330 330 330 333 335 335 336 335 335 335 335 335 335 336 335 335 336 336 336 336 336 336 335 336 335 334 334 334 333 332 331 330 329 330 330 330 330 330 330 329 329 329 329 328 327 326 324 322 320 318 316 315 314
322 323 324 322 321 324 333 330 333 338 330 326 330 333 328 325 323 320 323 321 318 318 315 316 317 314 317 318 317 317 315 318 320 321 318 318 322 327 329 328 330 330 329 329 329 330 330 332 333 334 334 333 333 334 335 334 334 334 333 333 333 334 334 334 334 334 333 333 333 333 332 332 331 329 328 327 327 328 328 329 328 328 327 327 326 326 325 324 322 320 316 313 311 308 306 306 305
322 325 327 330 330 326 331 332 331 335 329 323 325 329 326 323 320 318 321 320 317 318 315 316 317 316 318 315 322 320 312 317 318 318 318 317 321 326 328 328 330 329 329 329 329 330 329 331 331 332 333 333 332 333 334 333 333 332 331 331 331 332 331 332 332 331 331 330 330 330 330 329 328 327 326 325 325 325 325 325 325 325 325 324 324 322 321 319 316 311 308 305 303 302 301 300 300
320 322 325 329 325 323 329 329 325 326 328 325 322 326 325 321 319 317 321 322 318 319 316 318 318 316 318 315 324 322 312 317 317 317 317 317 320 325 328 327 329 329 329 329 328 329 328 329 328 330 332 331 332 331 332 332 332 331 330 330 330 330 330 330 329 329 329 328 328 328 327 326 326 325 324 324 324 323 321 320 320 321 321 321 320 318 315 311 308 305 303 301 300 299 299 299 299
320 321 324 326 322 320 325 325 324 324 328 328 323 323 322 318 320 318 319 320 318 318 316 315 316 316 317 316 322 320 315 317 316 318 317 317 320 324 328 326 327 327 328 328 327 327 326 327 325 328 329 329 330 330 330 330 331 330 330 329 329 329 329 329 328 328 327 327 327 326 326 325 325 324 323 323 321 317 314 312 312 313 314 314 312 310 306 304 304 303 300 300 299 298 298 298 298
326 329 328 324 323 322 322 324 328 330 330 325 324 323 318 316 317 319 318 317 319 318 316 314 316 319 316 318 326 318 314 316 316 318 317 316 320 323 327 326 327 326 326 326 326 326 324 324 324 325 326 328 329 328 329 329 330 329 329 328 328 328 328 328 327 327 326 327 326 326 325 324 323 322 322 320 315 308 305 304 304 305 305 305 304 302 300 300 302 300 299 298 298 298 298 298 297
326 334 339 331 328 326 324 329 330 332 331 325 327 324 315 315 317 320 321 319 320 318 318 317 316 319 317 322 329 316 311 316 316 317 317 317 320 324 326 326 327 326 325 325 324 324 323 323 323 324 325 327 328 328 328 328 328 328 328 328 327 327 327 327 326 326 326 325 325 325 323 322 321 319 318 313 307 303 302 300 299 299 299 300 299 299 298 298 298 298 298 298 297 297 297 297 297
331 335 339 328 326 327 324 331 333 330 331 328 327 319 311 317 320 321 322 320 318 319 320 317 315 316 317 323 324 319 316 315 316 317 317 317 320 324 326 326 326 326 325 324 324 323 322 321 322 323 324 325 327 327 327 327 327 327 327 327 326 326 326 326 325 325 324 324 324 323 321 319 316 313 310 307 304 303 303 301 300 298 298 298 298 298 298 297 298 297 298 297 297 297 297 297 297
333 336 336 323 323 329 326 328 331 325 327 331 326 317 313 317 320 320 320 319 320 320 316 312 313 315 319 320 325 333 321 313 316 317 316 317 320 323 325 326 325 325 325 324 324 323 320 320 320 322 322 324 326 326 326 327 326 326 326 325 326 325 325 324 324 324 323 323 323 321 319 315 311 308 305 304 304 303 303 302 301 299 298 297 297 298 298 297 297 297 297 297 297 297 297 297 297
324 336 337 327 326 328 326 324 323 321 322 327 322 315 316 317 317 319 318 319 321 317 311 310 312 316 320 319 325 330 314 311 316 315 316 318 320 322 324 324 325 325 324 324 324 323 322 320 319 320 321 322 323 325 325 326 326 325 325 325 325 325 324 324 323 323 322 321 320 317 314 309 307 305 304 304 303 301 300 300 300 299 297 297 297 297 297 297 297 297 297 297 297 297 297 297 297
324 338 333 327 328 324 324 323 320 320 326 331 322 314 318 319 315 316 316 316 318 314 312 314 313 314 319 321 320 315 309 312 314 315 317 318 319 321 322 323 324 324 324 324 324 323 322 320 319 319 320 320 321 324 324 325 325 325 325 325 324 324 323 323 322 321 319 317 314 311 307 305 304 304 303 303 301 299 298 299 299 297 297 297 297 297 297 297 297 297 297 297 297 297 297 297 297
324 334 329 324 328 325 325 325 320 322 331 336 325 315 317 319 316 313 310 311 316 316 316 319 313 312 318 319 313 309 310 312 313 315 316 316 318 319 320 322 322 323 323 323 323 323 322 321 319 318 319 319 319 322 323 324 324 324 324 324 324 323 322 321 321 318 314 311 309 306 303 302 301 300 301 301 299 298 298 298 298 297 297 297 297 296 296 296 297 297 297 297 297 297 297 297 297
324 330 324 322 327 327 328 328 324 320 323 327 321 316 315 318 319 313 311 313 316 315 317 318 314 313 313 311 309 310 311 312 313 314 314 314 314 315 317 319 320 322 322 323 323 322 322 321 320 319 318 318 319 320 322 323 323 323 323 323 322 320 319 318 316 314 310 307 305 303 301 299 298 298 298 298 298 297 297 298 298 297 297 297 297 296 296 296 296 297 297 297 297 297 297 297 296
330 330 321 326 331 327 326 328 327 320 319 322 320 317 314 316 317 312 314 318 317 316 318 317 316 317 313 309 308 310 311 311 313 313 312 311 311 313 314 316 318 319 320 322 322 322 321 321 319 319 318 318 319 320 321 322 323 322 322 321 319 317 316 314 311 308 305 303 302 300 299 297 297 297 297 297 297 297 297 297 297 297 297 297 297 296 296 296 297 297 297 297 297 297 296 296 296
330 326 323 334 331 323 324 325 324 320 317 319 320 317 314 316 315 312 315 317 317 316 317 316 317 319 316 316 310 308 309 309 311 311 311 311 311 312 313 314 316 318 320 321 321 321 320 320 319 318 317 318 319 320 321 322 322 321 320 317 315 313 312 309 306 303 301 300 300 299 297 297 297 297 296 296 296 297 297 297 297 297 297 297 297 297 297 297 297 297 297 297 296 296 296 296 295
324 323 328 336 325 320 324 323 322 320 315 315 317 315 315 316 313 313 315 315 317 316 316 315 315 317 316 322 316 305 306 307 307 310 310 310 311 311 313 314 316 318 318 318 319 320 320 319 318 317 317 317 318 318 319 320 321 320 317 314 312 310 308 306 303 301 299 299 298 297 296 296 296 296 296 296 296 296 296 297 297 297 297 296 296 296 297 297 297 297 297 296 296 295 295 295 295
321 322 327 330 320 318 322 324 322 319 315 315 316 315 316 314 312 314 315 314 316 316 317 316 315 317 314 318 317 306 307 307 306 307 308 309 309 310 312 313 314 315 315 317 318 319 319 319 318 317 316 316 317 317 317 318 319 317 315 312 310 309 306 304 302 299 298 298 297 296 296 296 296 296 296 296 296 296 296 296 296 296 296 296 296 296 297 297 297 296 296 295 295 295 294 294 294
320 323 323 325 321 319 321 322 321 318 315 316 317 315 314 314 314 316 315 314 315 315 316 318 315 312 309 311 316 317 316 312 307 306 307 309 309 310 311 311 313 313 314 315 316 317 317 318 317 316 316 315 316 316 317 317 316 315 313 310 309 308 306 303 301 298 298 297 296 296 296 296 296 296 295 296 296 296 296 296 296 296 296 296 296 296 297 296 296 296 296 295 295 294 294 294 294
319 322 322 322 320 320 319 318 319 318 316 317 315 313 314 315 315 313 314 314 314 313 313 315 312 306 306 313 321 325 321 313 308 306 308 309 309 311 312 311 311 311 312 313 314 315 316 316 317 316 316 315 315 316 316 316 315 314 312 309 307 306 304 302 300 298 297 297 296 296 296 296 296 296 296 296 296 295 295 295 296 296 296 296 296 296 296 296 296 295 295 295 294 294 294 294 293
320 321 323 321 319 321 320 317 318 319 317 314 312 314 316 314 313 311 312 313 313 313 311 312 311 308 309 313 318 320 318 312 307 306 308 308 309 310 310 309 309 309 310 311 312 313 314 315 316 316 315 314 314 315 315 315 314 313 311 308 306 305 303 301 299 298 297 296 296 296 296 296 296 296 296 295 295 295 295 295 295 296 296 296 296 296 296 296 296 295 295 294 294 294 293 293 293
322 321 321 321 319 320 318 316 316 317 317 313 311 315 314 312 313 312 312 313 312 312 312 312 312 313 312 311 312 315 317 315 308 306 307 307 308 308 308 308 308 309 309 310 311 311 313 313 314 315 315 314 313 313 314 314 314 312 309 307 304 303 302 300 299 297 297 296 296 296 296 296 296 296 296 296 295 295 295 295 295 296 296 296 296 296 295 295 295 295 294 294 293 293 293 293 293
320 319 319 319 316 315 314 314 315 314 314 313 312 315 314 312 312 312 315 318 314 312 315 314 313 315 313 311 310 310 313 313 308 307 307 306 306 306 307 307 307 308 308 308 309 310 310 311 312 313 314 313 313 312 313 313 313 311 308 306 304 302 301 300 298 297 296 296 296 296 296 295 295 295 296 296 295 295 295 295 295 295 295 295 295 295 295 294 294 294 293 293 293 293 293 293 293
314 314 315 316 314 313 312 313 313 311 312 313 312 312 313 312 311 313 314 315 313 313 316 315 314 315 313 311 309 309 310 308 305 306 307 306 306 307 307 307 308 308 307 308 309 309 309 309 310 311 312 312 312 312 311 312 312 310 308 306 303 302 301 299 298 297 296 296 296 296 296 296 295 295 295 295 295 295 295 295 295 295 295 295 294 294 294 294 293 293 293 293 293 293 293 293 293
312 312 314 315 314 313 312 312 314 312 312 314 311 311 314 314 314 314 312 312 312 312 314 315 314 313 312 311 308 308 307 304 304 305 306 307 308 308 307 308 309 307 309 309 308 307 308 309 308 309 310 310 311 311 310 311 311 310 308 305 303 302 300 299 297 297 296 296 296 296 296 296 295 295 295 295 295 295 295 295 295 295 294 294 294 293 293 293 293 293 293 293 293 293 294 294 293
312 313 313 313 313 314 312 313 313 311 313 315 311 311 317 317 315 313 311 311 312 313 314 314 313 312 312 311 309 309 306 304 305 304 305 307 308 308 308 309 309 308 309 307 307 308 308 308 307 307 307 308 309 309 309 309 310 309 308 305 303 301 299 298 297 297 296 296 296 296 296 295 295 295 295 295 295 295 295 295 294 294 294 293 293 293 293 293 293 293 293 293 293 294 294 294 294
314 312 314 314 314 316 315 313 311 310 312 314 311 311 314 313 313 312 312 313 313 313 315 314 313 312 312 312 311 310 308 304 303 304 305 306 307 308 308 309 308 308 308 307 308 309 308 307 307 307 306 306 307 308 308 308 308 308 307 305 302 300 299 298 297 296 296 296 296 295 295 295 295 295 295 295 295 295 295 294 294 294 293 293 293 293 293 293 293 293 293 294 294 294 294 294 294
321 313 316 319 316 317 315 312 312 311 311 310 311 314 313 311 313 313 312 313 314 314 316 316 314 312 311 311 310 311 309 305 302 302 304 305 306 307 307 308 308 308 308 308 309 308 307 307 307 306 306 306 306 307 307 307 307 307 306 304 302 300 299 298 297 296 296 296 295 295 295 296 295 295 295 295 295 295 295 294 294 293 293 293 293 293 292 292 293 293 293 293 294 295 294 294 294
324 314 315 319 316 314 313 313 314 313 312 310 310 313 313 312 314 315 312 310 313 315 315 314 313 311 310 309 309 310 310 309 306 303 303 304 305 306 307 308 308 308 308 308 308 307 307 306 306 306 306 306 306 306 305 305 305 305 304 303 302 300 298 298 297 296 296 295 295 295 295 295 295 296 295 295 295 295 294 294 293 293 292 292 292 292 292 292 292 293 293 293 293 294 294 293 293
320 315 315 317 315 312 312 315 315 312 311 312 312 311 311 311 312 314 312 310 311 311 311 311 310 309 309 309 309 309 309 310 310 307 305 305 305 306 306 307 307 308 308 308 308 307 307 306 306 306 306 305 305 305 304 304 303 302 302 301 300 299 298 297 296 296 296 295 295 295 295 296 295 296 295 295 295 295 294 293 293 292 292 292 292 292 292 292 292 292 293 294 293 292 293 293 293
316 316 315 315 314 313 312 313 313 312 311 312 313 311 310 310 310 310 310 310 310 309 309 309 309 309 309 309 308 309 309 309 309 309 307 307 306 307 306 306 306 307 307 307 307 307 307 306 305 305 305 304 304 304 303 302 301 300 299 299 298 298 297 297 296 296 295 295 295 295 296 295 295 296 295 295 295 295 294 293 293 292 291 291 291 291 292 292 292 292 292 293 293 292 292 292 292
314 314 313 313 312 312 312 311 311 311 310 310 311 310 309 309 309 309 309 309 309 309 309 308 308 309 309 309 309 308 309 309 309 308 308 308 307 307 307 306 306 306 307 307 306 306 306 305 305 304 304 303 303 302 302 301 300 299 298 297 297 297 297 296 296 296 295 296 295 295 295 295 295 295 295 295 296 296 295 293 293 292 291 291 291 291 292 292 292 292 292 292 292 292 291 292 292
311 311 312 312 311 311 310 310 310 310 309 310 310 309 309 309 309 309 308 308 309 309 309 310 310 310 310 310 310 309 309 309 309 307 307 307 307 307 308 307 306 305 306 306 306 306 306 306 305 304 303 303 302 301 301 301 300 300 298 298 298 297 297 296 296 295 295 296 295 295 295 295 295 295 295 295 296 296 296 294 292 292 291 291 291 292 292 292 292 292 291 291 292 292 291 291 292
311 312 312 312 311 310 310 310 310 309 309 310 311 310 309 309 309 309 309 309 309 309 310 311 311 311 311 311 310 310 310 310 310 309 307 306 307 308 307 307 306 305 305 306 305 306 306 305 304 304 303 302 301 301 301 301 301 301 300 299 299 298 297 297 296 296 296 296 295 295 295 295 295 295 296 296 296 297 297 295 293 292 291 291 291 291 291 292 291 291 291 291 291 291 291 291 291
312 312 312 312 311 311 311 311 311 310 310 312 313 311 309 309 310 309 310 310 309 310 310 311 311 311 311 311 311 311 311 311 311 311 309 306 306 307 306 306 306 306 306 306 306 305 305 305 304 303 302 302 302 301 301 301 301 301 301 300 299 298 298 298 297 296 296 296 295 295 295 295 295 295 295 296 296 297 297 296 294 292 291 291 290 290 290 291 291 291 291 291 291 290 290 291 291
312 312 312 313 311 312 313 312 314 313 310 312 312 310 309 310 310 309 310 309 310 310 310 311 311 311 311 311 312 311 312 311 310 311 310 307 306 305 305 305 305 305 305 305 305 305 304 304 304 303 303 302 302 301 301 301 301 300 300 300 299 298 297 297 297 296 296 296 295 295 295 295 295 295 295 295 296 297 297 297 295 293 291 291 291 290 291 290 290 291 290 291 291 291 290 290 291
313 313 312 312 312 312 312 312 314 313 313 314 312 311 313 314 313 314 312 309 310 310 309 310 310 310 311 310 311 311 311 311 310 311 310 310 308 305 303 304 304 304 304 305 305 305 305 304 304 303 302 302 301 301 301 300 300 299 299 298 298 297 297 296 296 296 296 295 296 296 295 295 295 295 295 295 296 296 297 297 296 293 292 291 290 290 291 291 291 291 291 291 291 291 291 290 290
312 313 312 311 311 311 311 313 312 313 318 316 312 314 317 317 317 320 319 314 314 312 310 311 311 310 310 310 311 311 311 311 311 311 310 310 307 303 303 303 303 303 304 305 305 305 305 304 304 303 302 302 301 301 300 300 299 299 298 298 297 296 296 296 296 296 296 296 296 296 296 297 296 296 296 296 296 296 296 296 296 294 292 291 290 290 290 290 290 290 291 291 291 291 292 291 290
313 317 317 312 311 312 313 313 312 317 321 314 313 318 317 316 317 320 320 317 319 317 313 313 311 310 310 311 311 311 311 311 311 312 310 309 308 306 304 304 303 304 305 305 305 304 304 304 304 303 302 302 301 300 300 300 299 299 298 298 298 297 296 296 297 297 296 296 296 296 297 297 297 297 296 296 296 296 296 296 295 294 292 291 291 290 290 290 291 290 290 291 290 290 291 291 291
316 317 320 318 315 315 313 312 312 317 318 313 315 318 317 316 316 318 317 316 320 318 315 314 311 310 311 311 311 312 312 311 313 312 309 310 311 308 304 304 304 305 305 305 303 303 304 303 303 303 302 301 301 300 300 300 299 299 298 298 298 298 298 297 297 297 297 296 296 296 296 296 296 297 297 296 296 296 296 295 295 294 292 291 291 290 290 290 290 290 290 290 290 290 290 291 292
317 314 315 317 316 315 314 314 316 315 316 316 315 315 318 319 315 316 314 313 318 318 315 314 311 312 312 312 313 313 312 310 312 311 311 314 310 304 302 303 304 305 305 303 303 303 303 303 303 302 302 301 300 300 300 300 299 299 298 298 298 298 298 298 297 296 296 296 296 296 296 296 296 296 296 296 296 295 295 295 295 293 292 291 291 290 290 290 290 290 290 289 289 289 290 291 291
315 312 315 316 317 318 316 317 318 317 318 317 316 315 318 320 318 318 315 314 320 319 315 313 312 313 313 313 314 315 313 310 310 308 311 313 305 300 302 303 304 305 304 303 302 302 302 302 302 301 301 300 300 300 299 299 299 299 298 298 298 298 297 297 297 296 296 295 295 295 295 295 295 296 296 296 296 295 295 295 294 293 292 291 291 290 290 289 289 289 290 289 289 289 290 290 291
312 314 319 318 319 320 319 320 318 317 319 318 319 318 317 320 320 320 318 317 320 318 316 317 317 318 318 317 317 317 314 311 312 310 311 310 302 299 302 302 303 304 303 302 301 301 302 301 301 300 300 300 299 299 299 299 299 298 298 298 298 298 297 297 296 296 295 295 295 294 294 295 295 295 295 295 295 295 295 294 294 293 292 291 291 290 290 289 289 289 289 289 289 289 290 290 290
312 318 321 317 320 320 319 322 319 317 321 319 318 316 315 319 318 318 320 318 317 317 318 322 322 323 327 328 325 318 311 309 312 313 315 315 309 306 303 301 303 303 302 302 301 301 301 301 300 300 299 299 299 299 299 299 298 298 298 298 298 298 297 297 296 296 295 295 295 294 294 294 294 294 294 294 294 294 294 293 292 292 291 291 291 291 290 289 289 289 289 288 288 289 289 290 290
311 317 318 314 320 320 318 321 319 319 321 316 313 313 314 317 315 316 318 317 318 316 316 320 322 324 329 329 325 319 311 308 308 311 316 317 316 317 310 301 301 302 302 301 300 301 301 300 300 299 299 298 298 298 298 298 298 298 298 298 297 297 297 297 297 296 295 295 295 294 294 293 293 293 293 294 294 293 293 292 292 292 291 291 291 290 290 289 289 289 288 288 288 289 289 289 290
312 315 317 316 318 319 319 322 320 320 321 314 310 314 316 317 318 319 317 314 317 317 315 317 318 321 322 318 318 317 312 310 309 312 317 316 317 320 310 300 299 301 301 300 300 300 300 300 299 298 298 298 298 298 297 298 298 298 298 297 297 297 297 297 297 296 296 295 295 294 294 294 293 294 294 294 294 293 293 293 293 292 291 291 290 290 290 289 289 288 288 288 288 288 289 289 289
311 314 318 318 321 324 323 326 324 322 324 315 309 315 321 320 320 321 318 316 319 321 320 315 312 314 316 316 317 316 315 315 311 311 315 316 319 313 303 299 301 301 301 300 300 300 300 300 299 299 298 298 298 297 297 297 297 297 297 297 297 297 297 297 297 297 296 295 295 295 295 294 294 295 294 294 294 293 293 293 293 292 292 291 290 290 289 289 288 288 288 288 288 288 288 288 288
312 316 318 315 320 325 321 323 324 320 322 317 313 318 322 317 316 317 317 315 317 320 317 311 312 314 315 317 317 316 321 321 314 314 313 313 313 303 296 301 302 301 301 300 300 300 301 301 300 299 299 298 298 297 297 297 296 296 296 296 297 296 296 297 296 296 296 296 295 295 295 295 295 295 294 294 293 293 293 293 292 292 291 291 290 289 289 289 288 288 287 287 287 287 287 287 288
314 315 317 314 317 320 317 321 322 318 320 320 319 321 320 316 317 318 319 316 314 317 316 312 317 319 316 318 318 320 325 322 316 316 312 311 312 303 298 302 302 301 302 301 301 301 301 301 300 299 299 298 298 297 297 296 296 296 296 296 296 296 296 296 296 296 296 295 295 295 295 295 294 294 294 294 293 293 293 292 292 292 291 291 290 289 289 289 288 288 287 287 287 287 287 287 287
315 317 316 314 315 317 317 320 321 320 321 321 320 322 320 320 321 320 323 322 318 321 321 319 320 320 319 323 327 325 321 316 314 315 313 311 312 306 299 300 301 301 302 302 302 301 300 300 299 299 298 298 297 297 296 296 296 295 296 296 296 296 296 296 296 295 295 295 295 294 295 295 294 294 294 293 293 293 293 292 292 291 291 290 290 289 289 288 288 287 287 287 287 286 286 286 286
313 316 314 314 317 319 318 318 320 320 321 322 321 321 320 320 320 318 321 321 320 321 323 323 320 319 323 328 326 320 315 314 314 313 310 307 305 301 297 297 299 300 300 300 300 299 299 299 298 297 297 297 297 297 296 297 296 296 295 295 295 296 296 295 295 295 295 294 294 294 294 294 294 294 294 293 293 293 292 292 292 291 290 290 289 289 288 288 287 287 287 286 286 286 286 286 286
310 312 313 313 315 317 318 319 320 321 321 323 323 322 321 320 319 318 317 317 319 320 320 321 318 318 324 326 320 316 313 312 310 306 303 302 300 298 296 296 297 297 298 298 297 297 298 298 298 297 296 296 296 296 296 296 296 296 295 295 295 295 295 295 295 295 295 294 294 294 294 294 294 294 293 293 293 293 292 292 292 291 290 289 289 288 288 288 287 287 286 286 285 285 285 285 285
314 314 314 313 313 316 317 316 318 319 319 321 323 323 323 323 321 317 314 314 316 317 316 318 318 318 321 319 314 311 308 304 302 300 299 298 297 296 295 295 295 295 296 296 296 297 297 297 298 297 296 295 295 295 295 295 295 295 295 295 295 295 295 295 295 294 295 294 294 294 294 293 293 293 293 293 293 292 292 292 291 291 290 289 289 288 288 287 287 286 286 285 285 285 285 285 285
318 315 316 315 313 316 317 316 318 318 317 319 321 320 323 328 325 318 315 314 315 316 315 316 318 316 315 312 307 303 301 298 297 296 296 296 295 294 294 294 294 294 294 295 295 296 296 297 297 296 296 296 295 295 295 295 295 295 295 295 295 295 295 295 295 294 294 294 294 294 293 293 293 293 292 292 292 292 292 292 291 291 290 289 289 288 288 287 286 286 285 285 284 284 284 284 284
Wind_Speed
1 1 1 1 3 2 2 4 2 3 2 1 3 1 4 4 1 3 4 3 1 3 3 2 6 6 4 3 7 6 5 7 7 5 4 5 1 14 30 18 12 26 31 27 26 24 23 21 19 18 17 17 17 17 17 17 16 15 15 13 12 11 11 11 10 10 10 10 10 10 10 10 10 10 10 9 9 8 8 8 8 8 8 7 7 8 7 6 6 6 5 3 3 3 3 3 3
1 1 2 1 3 1 1 4 2 4 4 3 3 3 4 3 1 5 7 5 5 3 3 1 4 1 2 1 3 2 4 6 5 4 3 3 2 16 30 18 15 28 31 28 27 25 23 21 19 19 17 17 17 16 16 16 16 15 15 14 14 13 12 12 12 12 12 12 11 11 11 11 10 10 9 8 9 8 8 8 8 8 8 8 8 9 8 6 5 4 3 2 2 2 2 2 3
0 1 2 0 3 3 1 4 1 1 2 3 5 4 2 1 5 8 9 9 7 3 3 1 3 0 1 1 0 3 5 4 3 3 2 5 5 16 31 20 19 29 30 29 26 26 25 23 20 19 18 17 16 16 15 15 15 14 14 15 15 15 14 14 13 13 13 13 12 11 11 10 9 9 9 8 8 7 8 8 8 8 8 8 8 9 8 7 6 5 4 3 1 2 3 4 5
1 2 3 1 1 4 4 3 1 4 2 3 3 5 3 5 8 7 8 7 5 2 1 2 1 1 4 4 2 1 5 4 5 6 1 8 8 16 31 22 22 31 31 30 27 26 25 24 23 20 18 17 17 16 16 15 15 14 15 15 15 15 14 14 13 13 13 12 12 11 10 10 8 8 8 7 7 6 6 7 7 7 7 7 6 7 7 7 7 6 5 4 5 5 6 7 7
1 3 4 1 2 1 3 2 2 3 4 4 2 6 5 7 7 6 6 6 5 4 2 2 1 2 1 4 3 1 6 3 5 9 3 6 9 18 29 24 26 32 31 31 29 27 25 25 24 22 19 17 17 16 16 16 15 14 15 15 14 14 14 13 13 13 13 12 11 11 10 9 8 7 7 7 6 6 6 6 6 6 6 6 5 6 7 6 6 5 5 5 6 6 7 7 8
1 3 6 4 3 1 3 1 2 2 5 5 3 7 7 7 6 5 6 6 3 5 3 1 1 0 1 3 3 4 5 1 1 8 6 3 9 21 28 26 29 32 32 31 30 29 26 26 25 23 20 18 18 17 16 16 16 15 15 15 14 14 14 14 13 13 13 12 11 11 10 9 8 7 8 8 7 7 7 7 7 7 7 7 6 7 6 5 6 5 6 6 6 6 6 6 7
1 1 4 5 2 2 3 3 4 4 5 6 5 7 7 4 4 3 5 3 1 3 2 1 1 2 3 3 2 5 6 5 1 4 7 5 9 21 27 27 30 31 31 31 30 29 27 27 26 25 21 18 18 18 17 16 16 16 15 15 15 15 15 14 14 14 13 12 12 11 10 9 9 9 9 9 9 9 8 8 8 8 8 8 7 7 6 5 5 5 5 5 5 5 5 5 5
4 1 1 3 1 3 2 3 4 4 4 4 4 7 8 4 3 1 3 1 1 2 0 2 1 2 5 2 2 5 5 10 5 4 8 7 11 22 28 28 30 31 31 30 30 29 28 27 26 26 23 20 19 20 21 20 17 16 17 17 16 17 15 15 15 14 14 14 13 12 11 11 11 11 11 10 9 10 10 10 11 11 10 9 8 6 5 5 4 4 4 4 4 4 4 4 5
5 3 0 2 2 1 1 3 4 4 5 5 5 7 8 4 3 2 4 4 3 1 2 4 3 3 5 4 4 6 4 11 10 6 8 9 13 22 28 30 30 31 30 30 29 29 28 27 27 26 24 23 21 20 20 20 19 17 18 17 17 17 16 15 15 15 15 15 14 14 13 13 13 13 12 11 11 11 12 12 11 11 11 10 8 7 6 5 4 4 4 3 3 3 3 3 3
4 4 1 1 2 1 4 3 3 3 6 5 6 10 9 4 4 4 4 5 3 1 4 3 3 4 3 3 6 5 3 9 12 11 10 10 13 22 29 30 30 30 30 30 29 28 27 27 27 27 25 23 20 19 19 19 19 19 18 17 17 17 17 16 15 15 16 15 15 15 15 15 15 14 14 13 13 13 12 12 12 11 11 10 9 8 7 6 5 4 4 3 3 2 2 1 1
2 4 2 2 2 1 3 4 4 5 6 5 7 9 8 4 3 3 4 4 4 2 3 2 2 4 1 4 5 4 4 8 13 13 11 11 15 23 28 30 29 28 29 29 28 27 27 27 26 26 26 23 21 20 20 20 19 19 19 18 17 17 17 16 16 16 16 16 16 16 16 16 15 15 15 14 13 13 12 12 12 11 11 10 9 8 8 8 7 6 5 4 4 3 3 2 3
2 3 4 3 1 3 4 3 5 7 7 6 6 5 2 5 4 3 5 4 2 1 5 5 2 3 2 5 4 4 6 9 13 13 11 13 18 23 26 29 29 27 28 28 28 27 27 27 26 25 25 24 22 21 21 21 20 20 20 20 19 18 18 17 17 17 17 16 16 16 16 16 15 15 15 14 13 12 12 12 12 11 11 10 9 9 9 9 8 7 6 5 5 4 3 3 3
2 2 5 2 3 2 2 3 5 5 7 4 5 5 2 5 4 5 5 3 2 1 7 7 2 2 2 5 4 5 5 8 13 13 12 14 19 24 25 27 28 27 27 27 27 27 27 27 27 26 25 25 23 22 22 22 22 21 21 21 20 19 19 18 18 17 17 16 16 16 15 16 16 15 15 14 13 13 13 13 13 12 12 11 11 10 9 9 8 7 6 5 5 4 3 2 2
3 3 4 1 1 1 2 3 3 2 5 5 4 4 1 2 4 4 5 2 6 4 4 5 5 2 3 4 5 5 3 4 12 14 12 16 21 24 25 27 27 27 27 27 28 28 28 27 27 27 26 26 26 24 23 24 24 22 22 22 21 21 20 19 18 18 17 17 16 16 16 16 16 16 16 15 15 15 15 14 14 13 13 13 12 11 10 9 8 7 6 5 4 3 2 2 2
3 2 4 2 1 2 3 3 1 3 4 6 3 2 2 4 3 4 6 5 7 5 1 1 5 2 3 4 4 5 4 3 13 14 15 18 21 23 25 26 26 27 27 27 28 28 28 27 28 28 27 27 27 26 25 24 24 24 23 23 23 23 22 21 19 19 19 18 17 18 18 18 18 17 17 17 17 17 16 15 15 14 14 13 12 11 10 9 8 7 6 5 4 2 1 1 1
3 3 5 1 1 2 3 4 1 2 5 6 3 1 2 6 3 2 5 4 4 3 1 3 4 2 4 6 6 5 6 5 15 15 17 19 20 22 22 25 26 27 28 28 29 29 28 28 29 29 29 28 28 26 25 25 25 25 24 24 25 24 23 22 21 21 20 19 20 21 20 20 19 19 19 19 18 18 17 17 16 15 15 13 12 11 10 9 8 6 5 4 3 2 1 1 2
3 4 4 1 2 2 4 4 4 3 5 6 5 1 0 7 2 2 1 3 3 3 1 5 3 3 6 6 4 4 2 11 16 16 18 18 19 20 20 24 26 28 30 30 31 30 29 30 30 30 30 30 29 28 27 27 27 26 26 26 27 25 23 23 23 22 22 22 22 22 22 22 22 21 21 20 19 19 18 18 17 16 15 14 13 12 10 9 8 6 5 4 3 3 2 2 3
3 3 3 2 3 4 6 7 7 4 4 6 4 1 2 7 5 1 2 1 3 4 5 6 6 7 9 7 5 3 6 15 18 20 20 18 19 19 21 25 27 30 32 33 33 33 32 32 31 31 31 31 30 29 28 28 28 28 28 27 27 26 24 24 24 24 24 24 24 24 23 23 22 22 21 20 20 20 19 18 18 17 16 14 13 12 11 9 8 7 6 5 5 4 4 3 4
3 3 2 4 6 5 6 8 6 4 4 6 6 3 3 7 4 1 3 6 4 5 8 5 7 11 11 8 6 6 12 18 22 23 22 21 22 22 23 26 29 31 33 37 38 36 35 34 33 33 33 33 32 31 30 30 30 30 29 28 27 27 26 26 26 26 25 25 24 24 23 23 23 22 22 21 21 21 20 19 19 17 16 15 14 13 11 10 9 8 7 6 6 5 5 4 4
2 4 2 6 7 5 5 7 8 7 4 5 8 3 3 6 3 1 3 7 6 7 10 7 8 12 13 8 7 11 15 19 22 23 23 24 26 26 26 27 31 35 39 40 38 38 37 36 35 35 34 34 33 32 32 32 31 31 30 29 28 28 27 27 27 26 26 25 24 24 23 23 23 23 22 22 22 22 21 20 19 18 17 15 14 12 11 10 9 8 8 7 6 6 5 5 5
2 4 5 7 4 3 7 9 9 8 3 4 6 4 6 6 2 3 2 5 9 9 10 11 13 14 13 8 8 12 14 16 19 21 21 22 25 27 29 32 35 37 37 35 36 39 39 39 37 36 36 35 35 34 34 34 33 32 31 30 30 29 29 28 27 26 26 25 25 24 24 24 24 24 24 23 23 22 21 20 19 17 16 15 13 12 12 11 10 9 9 8 7 7 6 6 5
2 4 7 6 5 4 8 7 7 5 3 3 4 5 8 4 1 5 6 5 11 10 8 12 14 13 12 8 8 9 10 12 15 18 20 22 26 28 29 31 31 30 30 33 39 41 41 40 39 38 37 36 36 36 36 35 34 34 33 32 31 30 30 29 28 27 26 26 26 26 26 26 26 26 25 25 24 22 21 20 19 18 17 16 15 14 13 13 11 10 9 8 8 7 7 6 5
3 5 5 6 6 6 6 3 5 4 3 4 4 5 5 5 8 6 9 11 17 14 8 10 11 11 9 5 7 8 11 12 14 20 25 26 28 30 32 33 33 32 32 36 38 39 40 41 41 40 39 38 37 37 36 36 36 36 34 33 32 32 31 30 30 28 27 27 28 28 28 28 28 27 26 25 24 23 22 21 21 19 19 18 17 15 14 13 11 10 9 9 8 7 7 6 6
3 5 5 6 6 9 8 4 3 3 6 8 3 5 8 11 9 2 8 13 18 17 10 9 10 9 7 5 8 11 13 14 18 26 31 32 34 37 37 35 34 32 32 35 35 37 40 42 42 42 41 40 39 39 38 38 38 37 35 35 34 33 32 32 31 29 28 29 30 30 29 29 28 28 27 26 25 24 23 23 22 20 19 18 17 15 13 13 12 10 10 9 8 7 7 6 6
5 7 6 3 4 8 9 6 6 7 8 6 2 8 16 14 6 6 10 14 18 17 12 9 10 9 7 9 11 11 12 14 18 24 28 31 33 33 33 31 29 30 34 36 36 38 40 42 43 44 44 42 41 41 40 40 39 38 37 37 36 34 33 32 31 30 30 31 31 31 30 30 29 29 28 27 26 26 25 24 22 21 20 18 17 16 14 12 12 12 11 10 9 8 7 6 6
7 8 5 3 5 7 7 7 7 8 6 4 3 12 18 9 4 11 13 16 18 13 12 9 7 10 9 10 12 11 12 13 16 21 25 28 27 27 31 31 30 35 38 37 37 39 39 40 43 46 46 44 43 42 42 42 41 41 40 39 38 36 35 33 32 31 31 32 33 32 32 31 30 29 28 27 27 27 26 25 24 22 20 19 17 16 15 13 12 12 11 10 9 8 7 6 5
5 5 6 7 8 8 5 6 8 5 5 7 8 14 17 5 2 9 9 9 8 5 9 7 4 9 10 9 10 10 11 15 19 19 19 20 22 28 32 31 35 40 37 36 40 40 39 40 43 45 45 45 44 44 44 44 43 43 42 40 39 38 36 34 33 33 33 34 34 33 32 31 30 29 28 28 28 28 27 26 24 23 21 19 17 16 15 14 13 12 11 10 9 8 7 6 5
2 1 7 9 7 9 7 7 8 4 4 8 11 11 13 4 1 13 15 6 1 4 10 9 7 10 10 10 9 8 10 17 19 15 14 18 25 32 33 35 41 41 38 42 42 39 40 41 42 44 45 46 46 46 46 46 46 45 44 42 41 39 37 36 35 35 36 36 35 34 33 32 31 30 29 29 29 28 28 26 25 23 21 19 18 17 16 15 14 13 12 11 10 9 7 6 5
1 3 6 11 6 10 10 6 5 6 4 6 9 5 9 6 9 18 18 6 1 6 10 11 11 10 10 9 8 7 10 14 13 14 22 28 32 33 35 41 43 40 43 44 39 38 42 43 42 43 44 46 47 48 48 48 48 46 45 44 42 41 39 37 37 37 37 37 36 35 34 33 32 31 30 30 30 29 28 27 25 24 22 20 19 19 17 16 15 14 13 12 11 9 7 6 4
3 2 1 8 7 9 7 2 1 4 5 7 7 3 6 9 17 20 12 6 5 7 10 12 11 9 10 9 7 8 10 10 12 20 30 33 35 33 37 42 39 40 41 38 37 42 44 43 42 43 44 47 48 49 49 49 49 48 48 46 44 43 41 40 39 39 39 39 38 37 36 35 34 33 32 31 31 30 29 28 26 24 23 22 21 20 19 17 16 15 14 13 11 9 7 5 4
3 2 1 2 2 7 6 3 3 1 3 7 6 5 8 11 19 20 7 5 7 8 11 12 10 9 9 9 7 9 10 11 17 26 31 34 35 34 36 38 35 38 37 36 42 44 43 43 43 44 44 46 48 49 50 50 51 50 49 48 46 45 43 42 41 41 41 40 40 39 38 36 35 34 33 33 32 32 31 29 27 26 24 24 22 21 19 18 17 16 14 13 11 9 7 5 4
2 2 4 2 3 6 11 6 6 7 4 4 6 5 8 11 16 18 5 4 6 7 11 11 11 10 9 10 8 9 11 11 17 25 31 35 35 35 37 37 34 37 39 41 43 41 41 43 44 44 45 46 48 50 51 51 51 50 50 49 48 47 45 45 44 43 42 42 41 40 39 38 37 36 35 34 34 33 32 30 29 27 26 25 24 22 21 20 18 17 15 12 10 9 7 6 5
3 1 5 5 5 4 8 9 6 9 3 2 7 6 7 8 11 14 7 3 7 7 11 12 12 12 10 10 8 10 12 13 14 19 28 34 34 36 38 39 37 38 41 42 41 40 41 42 43 45 46 47 48 49 49 49 49 49 49 48 48 48 47 46 45 44 44 44 43 42 41 39 38 38 37 36 36 35 33 31 30 29 28 26 25 23 22 21 19 18 16 14 11 9 8 7 6
3 1 4 5 7 5 4 9 6 3 5 5 7 8 11 12 10 12 12 8 6 7 12 14 13 13 12 10 9 12 12 15 15 16 24 30 32 36 37 39 38 37 39 40 40 41 42 42 43 45 46 46 46 47 47 47 46 45 45 46 46 46 46 46 46 46 46 45 44 43 42 41 40 39 39 38 37 35 33 32 31 30 29 28 26 25 24 22 20 18 16 15 13 10 9 8 6
7 6 5 4 5 6 6 8 6 2 3 5 5 9 14 15 13 13 15 14 12 14 14 14 14 14 15 13 12 14 13 15 17 21 27 26 27 32 33 35 35 36 37 37 39 40 40 40 41 43 44 44 44 44 44 43 42 41 41 41 41 42 44 44 45 46 46 46 45 45 44 43 42 41 40 40 38 36 34 33 32 31 31 29 28 27 25 24 22 20 17 16 15 13 11 9 7
11 8 5 6 6 7 8 11 8 3 5 6 9 15 15 15 15 15 17 13 13 18 16 13 13 13 15 14 13 13 14 16 18 25 29 24 23 26 27 29 32 34 36 36 37 38 39 39 40 42 43 43 42 41 40 39 38 38 37 37 39 42 43 44 45 47 47 47 47 46 46 45 44 43 42 41 39 37 36 34 34 33 32 31 30 29 28 26 24 22 20 17 16 15 12 10 8
5 4 5 7 8 9 10 13 10 0 3 8 11 17 16 14 16 15 16 13 11 17 20 17 15 14 14 14 15 15 16 17 16 21 25 21 19 21 22 25 27 29 32 34 35 38 40 41 41 42 43 42 42 41 42 42 41 40 38 40 44 44 44 44 46 48 49 49 49 48 48 46 46 45 43 42 40 39 37 36 35 34 34 33 32 30 29 26 25 23 21 19 17 15 14 12 9
5 5 7 7 7 12 11 12 13 1 1 7 8 17 18 13 16 16 14 14 12 16 20 21 20 16 14 14 18 18 15 13 11 15 18 16 17 19 21 23 24 27 31 33 36 38 40 40 41 41 40 41 43 44 44 45 46 46 45 46 48 46 46 48 49 51 51 50 49 49 48 47 46 46 44 43 41 40 39 37 37 36 36 35 33 31 29 27 26 25 23 21 19 17 14 12 12
7 5 6 7 4 9 10 9 11 3 1 7 7 15 16 11 16 18 16 17 15 15 18 21 21 17 16 17 17 15 13 12 10 12 13 12 15 18 19 22 25 27 29 32 35 37 37 39 41 40 39 41 44 45 45 46 47 46 43 42 41 40 42 46 46 47 49 49 48 47 47 47 46 46 45 44 43 42 40 39 38 38 37 36 35 33 31 29 28 27 26 24 21 18 15 13 13
6 5 5 8 3 5 8 5 6 4 3 7 9 15 14 10 15 17 18 17 13 14 17 19 18 17 21 20 14 10 12 14 13 12 11 9 11 14 16 19 22 25 27 29 33 35 36 39 41 40 40 43 44 45 46 44 41 40 37 33 33 33 34 37 38 39 43 44 45 46 46 47 46 46 46 45 44 43 41 41 40 39 39 38 37 36 34 33 32 30 29 26 24 20 17 14 14
7 8 7 9 9 10 10 5 7 7 5 4 7 14 12 8 11 11 10 8 9 13 14 16 18 20 20 16 11 9 11 14 14 13 13 10 8 10 12 15 18 22 26 30 32 35 36 38 39 40 40 41 42 43 43 40 36 35 33 28 26 28 27 29 33 35 38 40 44 47 48 47 47 47 47 46 44 44 43 42 41 41 40 40 39 38 36 35 34 33 31 29 26 23 20 16 15
8 7 11 15 14 12 11 8 7 6 5 4 5 9 10 4 8 8 6 2 6 8 10 15 19 19 14 9 10 10 10 11 10 12 13 9 7 9 11 13 16 22 27 30 32 34 35 36 37 38 39 39 40 41 40 39 37 37 36 32 29 29 27 31 38 39 39 43 46 47 48 48 48 48 47 46 45 45 45 44 43 42 42 41 40 39 38 37 36 34 32 30 28 25 21 18 17
8 5 11 15 12 9 11 8 4 2 5 3 4 1 10 5 4 9 8 5 9 9 9 15 16 14 10 8 9 10 9 8 7 9 8 7 7 8 10 14 18 23 27 28 29 31 33 33 35 37 38 39 39 39 40 40 40 39 41 40 37 35 34 36 41 41 42 45 44 44 46 46 47 47 47 47 46 46 46 45 44 43 42 42 41 41 40 38 37 35 33 31 29 26 24 21 20
7 5 7 9 8 9 7 5 4 4 3 3 2 5 7 12 5 5 6 6 8 11 12 15 14 11 11 10 9 10 10 8 7 7 5 6 7 7 10 15 18 22 24 23 25 28 30 32 33 35 37 38 38 39 41 43 43 42 42 41 38 39 39 37 37 38 40 42 41 41 43 44 45 46 46 47 47 47 46 46 45 44 44 43 43 42 41 40 38 35 33 32 30 28 26 23 23
6 3 5 6 6 6 5 5 5 2 4 3 3 5 2 13 6 3 2 4 7 12 15 14 12 10 10 10 10 11 9 5 4 6 7 6 8 9 12 16 16 19 20 20 22 24 26 29 31 33 36 37 38 40 42 45 45 44 43 41 39 40 39 34 33 34 36 38 39 40 41 42 43 44 46 47 47 47 47 47 46 46 45 45 44 44 42 40 39 37 35 34 33 31 28 25 24
4 5 5 4 4 3 5 4 3 3 3 5 5 6 2 12 8 4 4 2 7 11 11 9 8 8 10 10 9 11 8 5 4 3 5 7 9 11 13 14 14 15 16 17 18 19 21 24 27 31 34 36 37 40 42 44 45 43 43 43 41 39 35 31 29 31 34 35 37 38 40 42 43 45 46 47 47 48 48 48 48 48 47 46 46 45 43 42 41 39 37 36 35 32 30 27 25
3 5 5 5 4 4 4 1 4 2 6 5 10 12 6 7 6 4 3 4 6 5 5 7 7 7 10 9 8 9 6 5 5 4 5 7 10 12 11 11 11 12 12 13 14 16 18 21 24 28 31 33 35 38 41 43 44 43 44 44 43 39 35 32 30 31 34 34 35 37 39 40 42 44 46 46 48 48 48 49 49 48 48 47 47 46 45 44 43 41 38 37 36 34 32 30 27
4 3 3 3 4 4 4 4 3 2 7 5 9 12 9 8 5 1 4 6 4 4 4 8 9 7 9 7 6 7 2 3 4 5 6 8 10 10 10 10 11 11 11 11 11 13 16 19 22 25 28 30 32 35 39 41 42 44 44 43 42 40 36 36 36 35 36 38 38 38 38 38 40 41 43 46 48 48 48 48 48 48 48 48 48 47 47 45 43 42 40 38 37 35 34 32 30
4 3 3 1 4 3 2 3 1 4 7 4 5 7 6 12 7 3 9 11 8 8 6 8 9 8 9 7 7 8 4 4 4 3 6 7 8 8 8 9 9 9 11 10 10 11 14 17 21 24 27 29 31 34 37 40 42 45 45 42 41 40 38 39 39 38 38 40 40 39 39 40 40 41 44 47 49 49 48 48 48 48 49 49 49 48 47 45 44 43 41 40 39 38 36 35 34
6 5 5 5 2 2 3 3 2 5 6 3 3 5 4 9 6 8 14 13 9 6 7 9 9 8 8 7 8 9 8 7 5 4 6 6 6 7 7 9 10 9 10 10 9 9 12 16 20 24 26 27 29 32 35 39 42 44 44 42 41 39 39 40 41 39 39 40 40 40 42 42 43 45 48 49 50 49 49 50 50 49 49 48 48 47 47 45 45 44 43 42 41 39 38 36 35
6 5 5 5 5 4 4 4 5 5 3 2 1 3 4 4 2 6 10 8 6 4 6 7 6 7 6 7 8 8 7 7 5 4 5 6 6 7 8 11 13 11 9 9 10 10 12 16 20 24 27 28 31 33 35 39 41 41 39 40 40 40 41 41 40 40 40 40 41 41 42 43 45 46 47 47 47 48 49 50 50 49 49 48 47 47 46 45 45 44 43 42 42 40 39 37 36
4 3 3 3 5 5 4 5 4 2 2 2 3 4 5 4 6 8 7 8 8 7 5 5 6 7 5 6 8 7 6 6 5 5 6 6 7 7 9 11 13 11 9 9 10 11 13 17 21 25 28 30 32 34 36 37 37 36 37 38 39 39 39 39 40 40 40 41 41 42 42 43 44 44 44 44 45 47 49 49 49 49 49 49 48 47 46 46 45 45 44 43 42 41 40 39 37
2 3 3 5 3 5 3 5 1 1 4 6 5 7 7 6 10 7 2 3 5 6 6 5 7 7 6 7 7 6 6 6 6 6 6 7 6 6 6 8 11 12 11 12 13 14 15 18 21 25 27 29 31 33 34 33 32 32 35 36 36 37 37 39 40 40 40 39 39 40 41 41 42 42 42 42 43 45 47 48 48 48 49 49 49 48 47 47 46 45 45 44 44 43 41 40 38
5 3 4 2 1 2 2 2 1 1 7 7 6 13 11 7 9 4 7 6 6 6 7 5 6 6 5 6 6 5 6 6 7 7 7 7 4 3 7 12 16 18 18 19 20 19 18 19 22 24 25 28 29 30 31 31 31 32 33 34 35 36 37 38 37 36 36 37 38 40 41 41 42 42 41 41 42 43 45 46 47 47 48 48 48 48 48 47 47 46 46 45 44 43 41 40 39
5 3 1 2 2 3 1 2 2 4 8 5 7 14 11 8 11 7 7 9 8 7 7 6 7 6 5 5 6 6 7 7 7 7 7 9 9 11 16 21 25 25 22 20 19 18 16 18 21 22 24 25 25 26 29 31 33 34 33 33 35 37 38 38 37 35 34 35 38 39 40 42 42 41 42 42 42 43 44 46 47 47 47 46 47 47 47 47 47 46 45 44 43 42 41 40 40
2 1 3 1 2 2 1 2 2 4 8 7 7 10 8 8 10 6 2 5 7 7 6 6 7 6 5 5 6 7 8 8 9 9 10 12 13 16 22 25 26 26 25 24 22 19 17 17 18 20 23 23 22 23 25 28 31 33 34 34 34 36 36 36 35 34 35 37 38 38 39 40 40 41 42 42 43 44 45 46 47 47 47 46 46 46 46 46 46 46 45 44 43 42 41 41 40
1 1 3 3 2 1 2 2 1 2 6 7 7 9 7 5 6 3 2 2 5 5 4 6 7 7 7 5 4 7 9 12 13 13 14 16 16 20 25 28 28 29 31 33 32 30 27 24 21 20 21 22 21 22 23 25 27 28 31 33 34 35 35 35 35 35 36 37 37 38 39 38 39 41 42 42 44 45 45 46 46 47 47 46 46 46 46 46 45 45 44 43 42 42 41 40 39
5 5 5 6 5 2 4 5 4 3 5 6 7 9 7 4 7 7 1 1 3 3 3 6 8 10 12 9 9 12 13 14 14 13 14 14 13 16 23 27 30 31 32 34 34 34 33 29 26 21 19 20 22 23 24 26 27 27 30 32 33 34 34 34 35 36 38 38 38 38 39 38 40 41 41 42 44 44 45 45 45 46 46 46 46 46 46 46 46 45 44 43 43 42 42 40 39
Wind_Direction
194 203 321 277 300 288 344 48 66 323 67 313 275 218 262 238 254 276 268 261 230 250 224 157 140 149 131 177 202 192 183 172 173 148 207 242 216 182 176 180 180 172 172 170 174 176 174 172 171 168 172 174 174 175 176 180 180 180 177 176 172 171 168 163 162 160 162 163 162 158 152 148 144 139 138 135 133 132 123 121 125 127 126 121 123 126 122 124 129 138 142 143 131 101 82 68 44
165 298 5 2 6 30 246 67 93 331 40 319 282 183 259 300 303 243 233 216 209 263 309 140 137 143 78 107 164 164 239 215 194 178 244 239 184 185 177 181 179 174 174 171 175 176 173 172 172 169 172 175 175 175 175 176 176 176 172 170 170 170 169 164 161 162 162 160 157 152 149 148 145 140 139 135 137 139 134 132 133 131 124 123 123 119 120 132 148 156 157 161 131 93 59 23 347
57 331 359 275 21 45 74 44 105 50 63 275 278 232 258 277 231 236 229 217 221 263 315 131 117 291 121 338 98 159 252 272 230 213 283 195 186 184 178 181 178 177 177 173 176 178 175 173 174 172 174 178 176 176 175 174 174 173 170 168 170 171 170 166 162 161 160 158 154 151 152 153 148 144 144 141 144 145 144 145 143 135 127 129 124 121 132 151 174 182 177 191 218 273 285 295 297
35 4 347 217 44 33 66 37 139 128 184 233 268 261 232 213 235 250 248 239 241 248 298 144 142 229 166 233 244 185 254 274 234 196 219 199 195 182 178 177 175 178 179 177 178 180 179 178 178 176 179 180 177 180 177 177 177 175 172 170 172 173 170 167 166 163 162 162 159 161 166 168 160 154 157 160 159 151 145 145 145 137 130 128 125 153 179 189 197 197 198 230 261 274 280 283 284
21 28 4 93 97 37 93 62 105 127 216 192 221 266 234 219 243 267 275 281 259 200 155 117 236 283 163 222 201 224 238 259 250 207 216 211 194 180 178 174 174 180 182 181 181 184 185 184 183 181 187 187 183 187 185 181 180 179 178 177 177 176 173 169 170 171 172 169 170 178 180 178 171 169 178 186 178 162 154 148 144 134 137 144 150 193 210 218 225 226 236 253 264 267 270 273 276
355 43 30 64 91 89 117 199 183 207 228 173 195 261 245 224 233 269 295 297 260 200 178 119 222 311 283 254 201 212 216 149 232 208 222 223 190 181 178 174 175 181 184 185 185 186 189 189 187 185 190 195 191 190 194 191 186 186 186 188 186 188 186 179 179 182 182 177 182 189 184 179 178 183 191 193 180 167 163 151 146 143 159 184 198 215 224 235 245 252 256 259 260 259 260 262 266
10 2 21 63 53 30 118 217 213 236 242 176 192 255 270 253 210 281 316 302 253 226 199 222 168 96 261 283 265 240 218 207 171 216 222 206 185 182 180 176 178 182 184 187 187 188 191 192 192 191 187 190 191 189 197 198 194 193 194 197 194 199 197 191 193 192 193 191 193 193 186 184 191 197 194 189 178 168 164 162 171 180 190 202 207 214 222 234 244 247 247 249 250 251 252 255 260
48 49 4 93 77 8 104 255 245 219 249 221 219 246 270 273 187 293 301 234 230 254 263 272 131 133 269 337 276 255 230 221 227 249 222 206 188 183 184 180 180 184 186 188 189 189 192 193 195 195 190 187 191 195 198 196 200 203 202 203 199 201 201 198 200 198 199 201 199 197 196 193 195 193 186 184 175 170 178 190 198 202 204 204 204 203 207 216 222 226 228 229 234 237 243 250 257
43 41 46 96 146 350 17 289 274 234 257 267 265 255 267 260 191 247 260 258 265 276 267 241 163 187 287 348 262 280 277 224 220 233 220 212 194 185 188 185 184 185 187 190 191 192 193 196 197 197 195 193 196 201 201 196 201 206 205 204 200 200 200 199 198 198 198 197 196 195 195 188 183 179 177 175 173 181 196 203 203 204 204 203 202 198 194 194 197 205 206 208 209 212 222 237 259
36 29 151 92 119 310 315 279 264 257 255 261 272 263 267 249 187 216 224 263 250 271 291 218 166 228 288 309 260 281 259 217 213 222 221 213 196 188 191 190 189 187 188 192 193 196 196 199 199 199 199 198 199 200 199 199 200 202 203 202 200 198 198 198 194 195 194 190 188 186 184 178 176 174 173 172 178 193 199 200 199 200 202 201 200 194 188 182 178 181 182 175 162 156 154 152 124
36 356 106 90 64 274 264 259 270 272 275 293 286 268 264 224 168 203 199 271 249 238 285 133 186 230 270 289 257 246 226 217 210 214 221 209 194 191 192 192 193 192 192 193 194 198 199 201 201 199 199 195 197 197 195 198 199 198 200 199 197 196 194 194 190 190 188 185 184 182 180 177 176 175 174 178 188 197 194 194 194 195 195 194 192 186 181 174 168 164 160 147 133 118 109 93 83
81 337 64 99 173 220 225 250 276 282 298 308 285 289 302 158 148 204 201 244 238 293 250 183 198 173 142 280 264 271 261 232 209 208 221 205 193 192 194 194 195 196 197 196 196 199 200 202 201 199 198 195 194 195 194 195 198 196 196 196 195 194 192 191 190 189 186 184 183 182 181 180 180 180 183 189 194 191 186 186 185 186 185 183 180 173 169 165 161 157 153 146 138 131 119 94 72
116 139 85 131 193 183 220 246 277 306 313 279 249 290 16 136 186 217 183 213 197 333 260 211 164 111 206 255 286 308 289 239 207 205 213 201 194 192 194 196 196 198 200 200 200 200 200 201 200 200 198 195 193 193 194 195 196 195 194 195 195 194 193 192 191 189 187 185 185 183 182 184 187 189 191 192 189 182 178 175 174 175 172 170 168 165 163 159 158 154 150 146 141 135 123 102 80
138 147 110 176 208 134 207 263 292 331 290 261 253 292 314 190 220 195 147 224 240 205 246 212 146 118 252 264 313 303 305 239 199 202 203 195 194 193 196 197 198 199 201 203 203 203 201 201 201 202 201 196 194 193 195 195 194 195 194 194 195 194 194 193 191 190 188 186 185 184 186 190 192 193 192 188 183 179 177 173 170 169 166 166 166 165 164 160 158 154 150 145 139 130 118 94 69
141 135 91 126 332 335 212 239 225 133 257 261 260 301 296 246 169 155 184 208 254 218 203 215 156 183 214 200 258 257 305 237 190 195 192 190 192 194 198 198 200 201 204 206 206 207 205 204 203 203 204 200 198 195 196 196 194 195 194 194 195 195 195 193 191 190 190 187 188 191 193 195 193 191 188 184 182 181 178 173 170 168 167 168 167 165 163 161 157 153 149 145 142 139 129 101 2
119 111 68 73 265 303 223 216 157 140 251 247 261 319 319 278 159 174 227 177 270 271 152 212 185 209 186 186 224 258 309 206 184 189 184 184 189 193 199 200 203 204 207 210 209 211 209 208 206 206 207 205 203 197 197 197 196 196 194 195 196 195 194 192 192 193 194 194 196 199 199 196 192 189 186 184 184 183 178 173 171 169 170 170 168 166 164 162 157 153 152 152 155 162 188 229 261
82 84 76 313 217 215 210 200 190 195 259 268 295 355 239 297 277 220 268 109 258 275 253 237 225 221 199 202 252 303 284 181 179 181 176 181 186 191 200 202 205 207 210 212 212 213 212 211 210 210 210 209 206 199 198 199 198 197 195 196 197 196 194 194 195 198 201 200 202 202 200 197 194 192 188 187 185 181 178 174 172 171 172 171 170 168 166 164 161 162 163 167 178 190 208 229 243
66 88 124 236 201 202 192 190 202 192 260 269 290 82 213 286 292 278 3 1 275 280 274 264 275 259 237 242 275 290 181 176 179 177 175 179 184 190 201 204 206 209 211 212 214 214 214 215 213 213 212 211 208 202 200 201 201 199 198 199 199 200 198 198 200 203 204 204 205 203 200 199 197 195 191 189 186 182 179 175 173 174 175 174 172 171 169 169 169 171 176 181 188 195 206 216 228
103 118 157 234 205 213 199 188 200 203 236 263 281 277 226 253 267 13 277 279 303 291 277 273 277 269 259 249 233 211 182 180 184 182 182 184 188 194 200 205 208 211 213 213 215 215 215 216 216 216 214 212 209 206 203 204 205 203 202 203 203 204 203 204 205 206 208 208 206 203 201 200 198 196 192 190 187 183 181 179 178 178 179 178 176 176 175 175 175 178 180 183 185 186 193 199 209
163 130 199 244 216 230 234 207 211 221 238 287 287 287 228 245 243 125 246 280 286 254 260 260 257 260 257 238 190 190 186 187 190 189 193 195 197 200 201 203 208 213 215 215 216 215 216 217 217 217 216 214 212 209 207 207 208 207 206 207 207 207 207 208 209 209 210 210 207 204 202 200 198 195 192 191 189 186 184 184 184 183 184 182 181 181 178 177 178 179 178 176 178 176 178 183 186
175 149 205 236 196 229 242 216 222 236 230 247 277 331 290 262 190 198 225 298 282 244 237 238 241 248 250 235 190 188 189 194 198 200 204 205 207 208 209 209 210 215 215 217 218 217 217 217 218 217 216 215 214 213 210 210 210 209 209 209 209 209 209 210 211 212 212 211 207 205 202 199 197 195 193 192 191 191 189 188 187 186 185 183 181 181 178 178 177 175 173 170 169 168 168 171 172
171 213 228 225 162 228 246 211 223 224 182 222 273 303 284 282 186 207 187 233 262 251 225 224 233 241 246 233 196 189 196 202 203 208 212 212 215 215 218 218 217 218 217 218 219 219 219 218 218 217 216 216 217 216 214 213 212 212 211 211 210 210 211 212 213 213 212 210 207 205 203 199 198 196 195 194 194 194 192 190 188 186 185 183 181 182 180 176 174 169 166 165 163 164 163 164 163
229 250 254 240 193 228 254 202 209 184 176 242 249 281 297 299 280 214 175 219 251 257 232 221 235 236 241 220 172 190 206 207 207 209 211 213 216 218 219 220 220 218 218 220 221 220 219 218 218 217 218 218 218 218 216 215 214 214 214 213 212 211 212 213 214 214 212 209 207 207 205 201 200 198 197 196 196 194 193 192 189 188 187 186 184 183 181 173 169 166 162 163 161 161 160 158 156
236 256 262 252 212 227 251 250 242 218 240 249 255 320 291 267 278 213 182 227 252 260 250 237 252 244 229 210 192 207 211 210 216 215 214 215 217 220 221 221 221 220 221 222 222 221 221 220 219 218 219 219 219 218 217 217 216 216 216 215 215 214 214 215 216 214 211 209 209 209 207 205 203 201 200 198 198 195 194 194 191 191 190 190 186 182 181 173 168 165 163 164 162 160 157 154 149
220 235 248 253 228 239 258 269 267 262 256 247 264 287 267 253 268 276 240 243 256 262 265 252 258 259 229 226 224 220 220 220 224 224 222 223 223 225 226 225 223 224 225 224 223 223 223 221 220 220 220 220 220 219 218 218 218 217 217 217 217 216 217 218 218 216 212 210 210 210 209 207 206 204 203 201 199 197 196 196 194 194 192 192 188 182 180 176 169 167 167 166 162 160 156 154 148
217 222 248 268 269 268 275 273 253 253 252 196 206 262 266 270 286 271 247 241 255 260 269 268 257 259 237 232 232 221 225 226 226 227 227 228 227 229 230 227 224 226 227 225 224 225 224 222 222 221 221 221 220 219 219 219 219 218 218 219 219 218 219 219 218 217 214 212 211 211 211 210 210 208 206 204 202 200 199 198 197 196 195 192 190 184 179 178 174 170 168 166 163 161 159 155 148
199 214 266 256 265 277 254 255 250 242 252 193 194 253 267 306 1 270 243 221 246 254 267 276 249 252 243 234 236 225 225 229 228 226 230 230 224 228 230 225 224 227 227 225 226 226 224 223 224 223 221 221 220 220 220 220 220 220 220 220 220 220 220 219 218 217 216 215 214 213 213 213 213 211 210 208 205 204 202 200 199 198 196 192 189 186 180 178 176 171 167 166 164 163 163 156 150
192 219 298 275 285 293 241 238 253 218 255 201 186 251 279 324 186 251 259 241 210 269 276 282 261 255 253 241 237 229 229 235 232 222 225 225 222 225 225 223 225 226 225 227 227 225 225 225 224 223 222 220 220 221 220 221 221 221 221 221 222 222 221 220 218 218 217 216 216 215 215 214 214 214 213 212 209 208 205 203 202 200 198 193 189 187 183 179 177 174 169 168 169 169 171 162 157
299 62 317 291 332 310 263 246 242 179 212 189 164 263 289 274 240 247 261 271 295 278 279 278 268 265 262 251 238 233 238 238 229 222 228 229 229 226 226 228 226 223 226 228 226 225 227 226 224 224 222 220 220 221 221 221 222 222 222 222 222 222 221 221 219 218 218 217 217 216 216 216 215 216 215 215 214 212 210 207 205 202 199 195 191 188 187 184 180 179 175 174 176 175 176 168 166
302 57 300 297 342 311 267 156 105 160 192 171 151 271 263 250 259 260 263 260 265 273 270 269 268 270 269 263 248 242 244 235 222 227 232 234 235 231 231 234 228 226 228 225 224 227 227 225 224 223 221 221 220 220 220 220 222 222 222 222 223 223 222 221 220 220 219 218 218 217 217 217 217 217 217 217 216 214 213 211 208 204 199 196 194 191 190 188 184 185 184 182 181 180 181 178 176
309 298 241 322 324 286 280 153 137 258 225 161 154 255 251 253 268 272 271 212 227 247 263 269 269 268 272 271 262 257 251 233 229 234 236 237 239 236 236 238 232 229 228 224 227 228 226 224 223 222 220 220 220 219 220 220 221 221 222 222 222 222 222 221 220 220 220 219 219 218 218 218 219 219 218 219 218 217 215 213 210 206 201 199 197 194 192 191 189 190 191 190 188 186 187 185 180
5 283 285 308 200 268 299 277 193 224 265 140 161 236 261 258 264 273 285 145 187 231 254 264 269 268 268 272 269 267 266 250 238 238 241 241 240 239 240 240 234 231 229 228 229 227 225 224 222 221 220 220 219 219 220 219 220 220 221 221 221 222 221 221 220 220 220 220 219 219 219 219 220 220 220 220 220 219 218 215 212 207 204 202 199 197 194 194 194 193 193 194 197 194 189 188 182
340 209 258 268 239 270 311 298 234 199 202 179 205 232 269 262 260 273 283 189 183 224 258 263 268 272 268 270 271 268 273 271 256 241 242 243 241 240 240 241 237 234 233 230 228 225 224 223 221 220 220 220 219 218 218 217 217 218 219 220 221 221 221 220 220 220 220 220 219 219 219 220 221 221 221 222 222 221 219 216 212 208 206 204 201 199 196 197 197 198 197 195 197 197 192 187 179
296 227 234 248 251 263 296 299 294 161 164 216 233 237 251 259 268 283 288 271 243 246 265 269 270 274 270 265 263 262 264 268 268 256 248 244 243 244 242 241 239 237 236 232 228 226 225 223 220 220 221 220 218 217 216 215 215 216 218 219 220 220 220 220 219 219 219 219 220 220 220 221 222 222 222 223 223 222 220 217 213 209 208 205 203 201 199 198 198 200 202 198 194 193 192 186 177
238 239 244 263 253 251 258 270 289 339 224 222 251 252 253 264 272 278 278 278 279 271 266 269 269 269 268 264 257 258 260 261 264 263 260 252 247 248 246 243 240 238 237 234 230 227 225 223 221 221 220 218 217 215 213 212 212 214 215 216 218 219 219 218 218 219 219 220 221 221 221 221 222 223 223 223 222 221 219 217 214 211 209 207 204 203 201 199 198 198 201 202 195 190 192 186 176
230 237 246 267 267 252 247 254 259 290 286 255 253 261 261 268 270 270 272 272 279 281 277 272 266 263 264 263 258 256 258 257 256 261 266 264 255 253 251 248 243 239 237 234 230 225 223 221 220 219 217 215 213 210 208 206 206 209 210 212 214 217 218 217 218 219 220 221 222 222 222 222 222 223 223 222 221 221 219 218 215 213 211 209 207 206 204 203 201 199 200 202 199 192 188 185 179
257 258 256 257 264 267 261 268 270 154 286 255 245 264 267 266 268 266 269 272 273 279 280 275 268 263 262 263 263 258 252 254 261 267 270 270 264 257 253 250 243 237 234 231 227 224 222 220 218 217 215 212 209 205 203 202 202 202 203 208 212 214 214 215 217 218 220 221 222 222 221 221 222 222 222 221 220 220 219 218 216 213 213 211 211 211 209 206 203 202 201 198 200 195 187 185 180
275 253 266 265 252 265 267 273 278 280 259 257 242 267 270 264 270 267 266 268 258 258 268 273 271 267 266 265 263 261 258 264 273 275 273 269 263 255 248 244 236 231 230 227 225 224 222 219 218 217 213 209 208 206 203 203 204 203 204 208 211 211 211 212 215 217 218 220 221 220 220 220 221 221 221 221 220 219 218 218 216 215 214 213 213 212 210 207 204 203 201 197 196 193 190 187 181
251 249 275 274 256 277 274 264 283 318 215 273 274 272 271 260 263 263 256 254 249 245 251 262 270 272 270 263 260 266 275 281 277 272 274 268 260 254 244 237 233 232 231 228 226 224 220 218 218 216 212 209 209 207 206 206 207 207 207 209 210 209 212 213 214 216 217 218 219 219 220 220 220 221 221 221 220 219 219 219 218 216 216 214 213 211 209 207 205 204 203 202 196 190 190 188 184
231 224 250 264 254 276 269 261 316 336 239 276 295 283 274 249 252 258 253 250 250 250 248 255 265 263 260 261 265 279 282 282 280 278 281 274 263 256 244 238 235 233 232 229 225 222 219 219 217 214 213 212 210 208 208 208 207 206 208 211 211 210 213 215 214 217 217 217 218 219 220 220 220 221 221 221 220 220 220 220 219 217 216 216 214 213 210 207 207 206 204 203 199 192 187 185 187
224 210 222 251 250 246 256 287 341 326 285 310 321 298 284 221 224 249 256 252 245 249 252 257 260 256 256 268 279 273 264 270 279 281 282 281 276 272 261 252 245 235 232 231 227 223 220 220 218 215 214 212 210 209 207 205 203 201 202 205 207 207 211 211 211 215 215 215 217 218 219 219 220 220 221 221 221 221 221 221 221 219 217 217 216 215 214 211 210 208 206 204 203 201 194 186 186
251 216 211 235 249 254 265 293 341 339 307 342 14 319 297 193 179 237 262 260 244 245 244 247 253 257 262 276 276 265 256 258 266 272 281 297 316 310 290 270 253 242 239 238 233 228 224 222 219 215 213 212 211 208 205 201 200 198 196 195 194 196 201 205 209 211 210 213 216 217 218 218 219 219 219 220 221 221 222 221 221 219 218 217 217 217 216 214 212 210 209 207 206 207 203 192 185
274 230 207 225 242 255 263 277 315 291 256 290 69 354 289 281 181 229 236 213 242 246 238 245 252 263 273 272 267 270 271 268 265 269 295 328 326 314 291 272 257 252 252 247 238 232 227 223 220 216 213 212 210 207 203 200 199 199 198 199 198 197 201 208 211 211 211 213 215 216 217 217 217 217 218 219 220 221 221 221 221 220 219 219 219 218 217 216 215 213 212 210 209 209 208 201 191
270 229 191 203 219 232 234 229 226 236 270 306 133 144 277 287 257 217 208 190 240 252 244 250 253 259 270 270 272 276 275 283 286 292 338 336 297 285 281 278 273 270 268 257 243 236 230 224 220 216 213 212 209 206 203 201 201 201 201 203 204 206 208 211 212 210 212 213 212 214 216 216 216 217 218 218 219 220 220 220 220 220 220 219 219 219 219 218 217 215 212 211 211 210 211 209 200
253 193 151 167 190 202 170 168 203 250 343 305 218 143 245 279 280 71 110 185 236 251 245 251 260 266 271 273 280 279 279 306 326 323 338 316 291 292 292 292 290 286 280 264 250 244 235 227 221 216 213 211 208 205 203 203 203 203 203 204 207 211 213 213 212 210 210 210 210 211 213 214 215 216 217 219 219 219 220 220 220 220 219 219 220 220 220 219 218 216 213 212 211 211 211 212 210
228 117 96 82 83 92 111 148 145 78 310 253 198 159 208 279 280 82 79 199 227 248 252 260 271 276 274 275 280 280 297 3 33 357 313 292 300 311 311 310 305 297 288 273 256 246 237 229 222 217 213 210 208 206 204 204 204 204 205 206 208 211 210 210 210 208 208 208 207 208 210 212 213 214 215 217 218 219 220 220 220 220 220 220 220 220 220 220 219 217 216 215 213 211 210 211 213
141 101 57 36 32 37 59 57 92 82 279 235 185 181 181 276 284 126 163 226 214 235 278 287 282 274 270 270 272 279 309 9 19 352 297 296 317 330 337 333 320 309 294 277 256 241 234 228 223 220 216 212 209 207 205 205 205 205 207 208 210 210 207 204 204 203 204 205 205 207 208 210 211 213 213 215 217 219 219 219 220 220 220 220 220 220 220 220 219 218 217 216 214 213 212 211 210
133 105 68 20 333 10 29 353 53 170 263 240 187 182 180 233 261 142 255 270 240 217 253 279 284 281 274 274 276 279 306 63 34 355 322 325 337 345 354 348 331 318 300 278 253 237 229 224 221 220 218 214 211 208 207 207 206 208 210 211 211 210 207 204 204 203 202 202 204 205 206 208 209 211 212 214 216 217 216 217 218 218 219 220 220 221 221 220 220 218 217 216 214 213 213 211 209
127 115 130 238 307 340 339 306 103 212 257 264 188 167 201 243 254 265 268 273 256 228 220 249 262 264 271 293 306 305 329 42 44 351 318 331 336 334 339 337 326 314 298 280 256 238 229 225 220 219 219 217 214 212 210 209 209 211 212 212 212 211 209 209 209 207 206 205 205 204 204 205 206 208 211 213 215 214 214 215 217 218 219 220 220 221 221 220 219 218 217 216 215 214 213 212 212
160 154 163 176 207 253 263 255 260 259 266 276 190 163 240 275 274 240 244 257 259 238 230 236 236 244 266 293 306 308 319 337 2 348 325 331 329 322 320 319 320 315 304 286 266 250 235 228 222 220 220 219 218 217 214 213 214 215 214 213 213 212 211 212 212 211 210 209 207 206 206 206 206 209 212 214 215 214 214 216 218 219 220 220 221 221 221 220 220 219 218 217 216 215 215 213 214
184 165 145 175 189 193 230 236 247 264 278 298 236 188 221 259 270 230 232 260 289 258 245 253 249 251 275 296 298 303 308 319 343 344 321 311 309 309 308 315 320 320 314 292 273 261 245 235 228 224 222 219 218 219 219 218 218 217 217 216 216 214 214 215 215 215 214 212 211 210 210 210 211 213 214 215 215 214 215 216 217 218 219 220 221 221 221 221 220 219 219 218 218 217 215 215 214
217 131 116 221 203 177 237 257 229 220 323 283 233 227 231 239 273 266 253 268 279 268 276 315 301 287 302 298 288 295 300 310 334 338 320 296 283 283 291 309 319 325 323 299 280 268 255 247 237 231 228 223 220 220 221 223 223 221 220 220 220 219 217 217 217 217 216 216 215 213 213 214 215 216 216 216 215 215 216 216 216 218 219 219 220 221 221 220 220 219 218 218 218 217 216 215 214
190 127 186 235 176 152 236 283 288 98 266 258 245 259 276 293 287 290 350 309 297 300 304 305 290 296 307 285 276 296 310 317 320 320 313 287 257 253 282 322 336 341 340 323 307 292 275 262 249 240 234 227 223 222 222 225 228 228 226 224 224 223 222 222 221 220 219 218 218 217 217 217 218 218 218 217 216 216 216 216 215 217 218 219 219 219 220 220 219 219 219 218 218 217 216 216 215
135 174 221 226 116 133 161 266 329 274 253 257 260 264 276 290 280 324 29 352 337 328 312 306 299 296 280 268 274 295 301 299 296 299 305 307 311 338 5 9 2 354 348 339 332 321 303 281 264 253 245 237 230 226 224 225 229 232 232 229 228 227 227 227 227 226 224 221 220 219 219 219 220 219 219 218 217 216 217 216 216 216 217 217 218 218 218 218 218 218 219 219 219 217 216 215 216
139 210 268 94 219 248 140 175 227 239 247 249 244 256 267 261 261 292 324 306 314 322 312 311 300 285 278 291 311 315 308 306 316 327 331 340 356 10 17 12 3 357 352 346 342 333 316 295 280 270 262 255 245 236 230 228 229 231 234 234 233 232 231 231 230 230 229 226 224 223 221 221 221 220 219 218 216 216 216 216 215 216 216 216 217 217 216 216 216 217 217 217 218 217 216 215 215
97 316 329 56 186 227 182 179 198 233 251 257 242 247 252 246 261 295 306 266 288 308 310 302 286 276 283 301 317 323 326 334 344 353 356 3 10 14 15 9 2 1 0 359 359 355 347 331 312 294 281 272 264 254 247 241 236 234 235 236 236 236 235 235 234 233 232 231 229 227 226 224 223 222 220 218 217 216 215 215 215 214 214 214 215 215 215 214 214 215 216 216 216 216 215 215 215
169 262 272 256 230 252 266 235 179 224 256 261 251 247 244 246 275 295 128 173 283 295 313 311 301 295 289 282 299 329 351 3 5 10 10 12 14 12 12 9 6 8 9 9 9 7 6 359 346 325 302 287 277 269 265 260 254 248 243 241 240 240 240 239 238 236 236 236 234 232 231 229 227 226 222 219 218 217 216 215 214 213 213 213 213 213 213 213 212 213 214 214 215 215 214 214 214
183 202 213 226 224 236 275 257 215 211 250 256 258 260 255 260 290 296 298 142 289 295 324 317 309 309 316 335 2 8 15 16 13 16 16 15 14 10 9 9 9 10 9 10 11 11 10 6 0 349 327 309 293 281 274 269 266 261 256 252 248 246 244 242 240 238 238 237 236 235 233 231 231 229 226 223 220 218 216 215 214 213 212 212 212 212 212 211 211 211 212 212 213 213 212 212 212